SKYSAT-C7 (42991 NORAD) Tracking and Keplerian Element Data

This shows tracking and keplerian element data for the satellite.

Feedback or suggestion? Click here.




ElementValue
Catalog42991
NameSKYSAT-C7
Epoch Orbit36910
Epoch Day159.59929468
Epoch Year2024
RAAN285.6195
Inclination97.3693
Eccentricity0.0008316
Argument of Perigee104.3176
Mean Anonmoly255.8988
Mean Motion15.2996324
Decay Rate0.00016571
L11 42991U 17068E 24159.59929468 .00016571 00000+0 57266-3 0 9998
L22 42991 97.3693 285.6195 0008316 104.3176 255.8988 15.29963240369105



Live tracking and technical data element details for SKYSAT-C7 (NORAD 42991). SKYSAT-C7 can be tracked NOW for your location showing map with azimuth and elevation plus other details from your city location.







IsCatalogInMostPopularTable: catalog: 42991, numindb: 641
Update: records affected: 1



GetName: 42991 SKYSAT-C7

Hit Count: updated at: Mon, 17 Jun 2024 22:55:12 GMT